Theta_e
330 328 327 327 331 328 329 331 331 331 332 332 331 335 338 339 336 338 335 335 332 330
330 331 328 333 333 331 331 332 330 333 332 333 333 334 336 332 331 333 331 331 333 329
328 330 329 335 331 329 329 326 325 326 327 330 330 329 332 335 331 329 330 329 329 325
326 329 330 330 331 331 331 332 325 325 326 327 328 329 334 331 329 327 327 329 326 324
326 328 329 330 331 333 332 331 333 330 329 328 329 330 331 331 332 330 329 329 329 325
326 327 329 330 331 332 331 333 333 332 327 331 333 334 335 336 334 331 331 332 332 332
326 326 329 330 331 330 330 331 333 333 331 331 329 328 331 334 335 335 335 335 334 334
325 326 327 328 330 331 330 329 328 328 327 327 326 325 328 329 330 331 331 332 332 333
320 323 325 328 329 330 330 329 329 328 327 326 322 303 310 323 326 326 326 325 324 322
319 319 323 325 325 328 329 331 329 328 327 327 322 300 303 311 330 328 327 326 326 322
319 317 321 323 325 329 331 331 330 329 329 328 318 299 300 308 328 328 328 329 329 327
320 318 320 321 325 328 329 330 329 329 328 327 322 297 297 308 323 322 322 321 322 323
321 319 320 322 325 327 327 326 324 325 327 316 325 296 295 304 315 317 314 316 315 299
323 321 323 325 326 326 325 323 324 322 325 324 322 315 294 295 314 313 311 311 311 308
Wind_Speed
8 6 5 6 7 4 5 6 6 7 6 10 9 8 10 8 7 10 8 12 9 8
7 8 7 8 7 4 5 5 6 7 9 10 10 9 10 7 8 10 7 8 9 8
6 6 4 6 6 6 4 5 5 5 5 6 7 7 7 10 9 8 6 6 10 8
5 6 7 4 5 7 6 7 5 4 6 7 6 4 7 7 8 8 8 8 9 8
5 5 6 7 7 8 9 7 9 8 6 5 6 6 6 8 8 10 9 9 11 11
6 6 6 7 6 10 7 9 10 10 9 9 8 9 9 11 14 11 10 11 11 16
7 7 6 6 6 7 9 11 10 11 11 10 10 9 10 11 11 11 11 11 12 11
8 8 8 7 6 6 7 9 11 11 11 10 10 7 11 11 11 11 11 11 10 7
10 9 9 8 7 7 8 8 9 9 10 10 9 9 9 10 10 10 10 10 10 9
10 11 10 9 8 8 8 7 8 9 9 9 9 6 8 4 9 9 9 9 9 8
11 12 12 11 10 8 7 7 7 7 7 7 7 5 5 4 7 7 7 7 7 6
12 12 12 12 11 9 8 7 7 7 6 6 7 6 6 5 7 7 6 5 5 5
13 13 13 13 12 10 8 8 7 7 6 4 7 7 7 6 5 7 6 5 5 3
13 13 13 12 11 10 10 9 8 8 7 7 6 10 9 8 5 7 7 7 7 7
Wind_Direction
27 46 70 56 79 78 79 48 20 83 109 105 116 126 138 129 117 119 120 123 111 112
62 48 52 75 87 71 66 69 46 43 117 131 132 120 131 118 101 113 116 97 121 120
79 74 99 77 98 90 87 65 70 62 62 70 71 60 103 119 124 109 119 120 130 132
90 80 91 82 69 79 91 115 96 83 87 101 110 124 104 115 128 133 140 140 128 124
110 101 91 86 87 97 115 120 125 138 141 135 126 144 158 169 143 136 139 153 154 138
127 123 102 92 90 96 111 116 123 123 123 134 132 125 127 137 140 146 148 152 150 157
147 140 127 114 107 101 100 110 117 115 119 117 112 109 107 112 116 127 134 140 145 159
154 148 151 136 122 111 111 110 116 114 109 109 115 106 116 114 115 115 113 117 120 107
161 157 156 155 142 138 130 125 121 118 113 104 87 38 56 115 118 117 114 110 107 111
164 167 163 167 162 151 145 138 128 127 121 110 106 95 85 69 120 122 126 131 136 144
172 172 171 171 166 161 157 156 150 143 128 130 111 111 87 85 120 128 130 141 146 134
177 172 175 176 171 171 169 165 168 166 163 161 140 156 168 216 165 146 142 135 136 141
178 174 177 179 177 175 180 181 185 178 179 128 154 171 192 227 153 147 145 152 143 8
178 177 176 173 174 176 186 178 197 185 180 180 185 165 193 234 190 158 170 164 171 173